Regional Weather Roundup
Issued by NWS

Home | Current Version | Previous Version | Text Only | Print | Product List | Glossary On
Versions: 1 2 3 4 5 6 7 8 9 10 11 12 13 14 15 16 17 18 19 20 21 22 23 24 25 26 27 28 29 30 31 32 33 34 35 36 37 38 39 40 41 42 43 44 45 46 47 48 49 50
000
ASUS45 KABQ 210310
RWRNM
NEW MEXICO REGIONAL WEATHER ROUNDUP
NATIONAL WEATHER SERVICE ALBUQUERQUE NM
800 PM MST MON NOV 20 2017

NOTE: "FAIR" MEANS FEW OR NO CLOUDS BELOW 12,000 FEET AGL WITH NO
       SIGNIFICANT WEATHER OR OBSTRUCTIONS TO VISION.

      THIS PRODUCT IS RELEASED AS TWO VERSIONS.  ONE VERSION NEAR
      THE TOP OF THE HOUR CONTAINING PRELIMINARY DATA FROM ALBUQUERQUE
      AND OTHER STATIONS.  A FINAL VERSION WITH ADDITIONAL DATA IS
      ISSUED ABOUT 10 MINUTES AFTER THE HOUR.

NMZ501-503-504-510>518-210400-
NORTHWEST PLATEAU/NORTHCENTRAL MOUNTAINS

CITY           SKY/WX    TMP DP  RH WIND       PRES   REMARKS
FARMINGTON     FAIR      36  10  34 W9        30.14S WCI  29
LOS ALAMOS     FAIR      45  -4  12 NW3       30.15R
SANTA FE       FAIR      36   5  27 N8        30.09S WCI  30
TAOS           FAIR      38  -5  16 W9        30.14S WCI  31
ANGEL FIRE     FAIR      36  -5  17 SW5       30.14R WCI  32

$$
NMZ402-403-502-505>509-210400-
WESTCENTRAL MOUNTAINS/SOUTHWEST MOUNTAINS

CITY           SKY/WX    TMP DP  RH WIND       PRES   REMARKS
GALLUP         FAIR      32   4  30 NE5       30.20R WCI  27
GRANTS         FAIR      38   2  22 NW8       30.19R WCI  33
SILVER CITY    FAIR      48  15  26 N10       30.13R

$$
NMZ407-409-411-412-210400-
SOUTHERN DESERTS

CITY           SKY/WX    TMP DP  RH WIND       PRES   REMARKS
DEMING         FAIR      55  17  22 NW8       30.08R
LAS CRUCES     FAIR      49  19  30 W7        30.07S
HOLLOMAN AFB   FAIR      45  13  28 NE9       30.07R
ALAMOGORDO     FAIR      46  10  23 CALM      30.07R
T OR C         FAIR      53  14  21 N3        30.07R

$$
NMZ519>523-210400-
CENTRAL VALLEYS/CENTRAL HIGHLANDS

CITY           SKY/WX    TMP DP  RH WIND       PRES   REMARKS
ALBUQUERQUE    MOCLDY    48   3  15 CALM      30.11R
DOUBLE EAGLE   CLEAR     39   1  20 W9        30.13R WCI  33
MORIARTY ARPT  FAIR      52  -5   9 CALM      30.08S
CLINES CORNERS FAIR      44  -6  12 NW18      30.07R
BELEN          FAIR      43   9  24 NW7       30.10R
SOCORRO        FAIR      42   6  22 CALM      30.08S

$$
NMZ524>526-539-540-210400-
SOUTHCENTRAL MOUNTAINS

CITY           SKY/WX    TMP DP  RH WIND       PRES   REMARKS
RUIDOSO        FAIR      50  -8   9 NW8       30.11R

$$
NMZ527>531-210400-
NORTHEAST HIGHLANDS/NORTHEAST PLAINS

CITY           SKY/WX    TMP DP  RH WIND       PRES   REMARKS
LAS VEGAS      FAIR      43  -4  14 E3        29.99S
RATON          FAIR      43   8  23 N9        29.93F
CLAYTON        FAIR      45   8  22 W8        29.85S

$$
NMZ532>537-210400-
EASTCENTRAL PLAINS

CITY           SKY/WX    TMP DP  RH WIND       PRES   REMARKS
SANTA ROSA     FAIR      56   2  11 W21G28    29.90R
TUCUMCARI      FAIR      53   4  13 W12       29.83R
CANNON AFB     FAIR      49  -1  12 W7        29.89R
CLOVIS AIRPORT FAIR      49   4  16 W10       29.89R

$$
NMZ028-029-538-210400-
SOUTHEAST PLAINS

CITY           SKY/WX    TMP DP  RH WIND       PRES   REMARKS
ROSWELL        FAIR      48  21  34 CALM      29.91S
ARTESIA        FAIR      55  16  21 W15       29.92S
CARLSBAD       FAIR      55  19  24 S10       29.91S
HOBBS          FAIR      54  23  30 W10       29.92R


$$




USA.gov is the U.S. government's official web portal to all federal, state and local government web resources and services.